User: anonymous   Login
Location: Unspecified
(0.0000°N, 0.0000°E)
Time: 18:19:49
(UTC+00:00)
Language:

STARLINK-1777 - Orbit

View from above orbital plane
View from above orbital plane
View from above satellite
View from above satellite

Ground track
Ground track

The orbit is defined by the following mean orbital elements,

1 47122U          26145.36952227 +.00000000 +00000-0 +68184-3 0 00003
2 47122  53.0465 270.5072 0003773 243.4408 116.6220 15.66005324    09
Epoch (UTC): 25 May 2026 08:52:06
Eccentricity: 0.0003773
inclination: 53.0465°
perigee height: 368 km
apogee height: 373 km
right ascension of ascending node: 270.5072°
argument of perigee: 243.4408°
revolutions per day: 15.66005324
mean anomaly at epoch: 116.6220°

The dashed part of the orbit path shows where the satellite is in the earth's shadow,  

DLR